Location: Austin
(30.3000°N, 97.7500°W)
Time: 04:12:35
(UTC-05:00)

Sich 1 - Pass Details

Date: 01 October 2024
Orbit: 582 x 608 km, 82.5° (Epoch: 03 October)

Event Time Altitude Azimuth Distance (km) Brightness Sun altitude
Rises 19:31:33 0° 195° (SSW) 2,834 6.7 -4.3°
Reaches altitude 10° 19:33:47 10° 200° (SSW) 1,939 5.9 -4.8°
Maximum altitude 19:37:59 53° 278° (W) 741 4.0 -5.7°
Drops below altitude 10° 19:42:14 10° 355° (N) 1,960 5.7 -6.6°
Sets 19:44:30 0° 0° (N) 2,868 6.5 -7.1°
